"Pseudo-MPEC" for p0004M

Created 2025 May 12 0:31:05 UT using Find_Orb

Click here for an explanation of pseudo-MPECs

 
 Astrometry: 
     p0004M * C2025 04 23.53263115 18 05.622+07 46 49.65   ~4NM2 22.14wXNEOCPF51
     p0004M   C2025 04 23.54404015 18 05.700+07 46 50.82   ~4NM2 22.03wXNEOCPF51
     p0004M   C2025 04 23.55544315 18 05.764+07 46 51.13   ~4NM2 22.05wXNEOCPF51
     p0004M   C2025 04 23.56680715 18 05.810+07 46 51.13   ~4NM2 21.94wXNEOCPF51

Station data:
(F51) Pan-STARRS 1, Haleakala  (N20.707234 W156.255910)  US/Hawaii.
   Observers J. Bulger, T. Lowe, A. Schultz, M. Willman. Measurers K.
   Chambers, S. Chastel, T. de Boer, L. Denneau, J. Fairlamb, H. Flewelling,
   M. Huber, C.-C. Lin, E. Magnier, Y. Ramanjooloo, R. Wainscoat, R. Weryk.
   1.8-m Ritchey-Chrétien + CCD.

Orbital elements:  p0004M
   Perihelion 2025 Jul 1.40084 +/- 46.4 TT =  9:37:12 (JD 2460857.90084)
Epoch 2025 Apr 24.0 TT = JDT 2460789.5   Earth MOID: 0.0612      AutoNEOCP
M 338.17060138 +/- 20               (J2000 ecliptic)
n   0.31913934 +/- 0.241            Peri.  211.08356 +/- 100
a   2.12071583 +/- 1.07             Node    70.98451 +/- 45
e   0.5083523 +/- 0.214             Incl.   10.65126 +/- 3.6
P   3.08833                H 22.70  G  0.15   U 11.8  SR
q 1.04264494 +/- 0.295    Q 3.19878672 +/- 4.02
From 4 observations 2025 Apr. 23 (49.2 min); mean residual 0".23
Residuals in arcseconds: 
250423 F51  .12-  .31-    250423 F51  .15+  .19+    
250423 F51  .14+  .36+    250423 F51  .15-  .26-    

Ephemerides (geocentric):
Date (UTC) HH   RA             Dec           delta  r     elong  mag " sig PA
---- --------  ------------   ------------  ------ ------ -----  --- --------
2025 05 12 01  15 19 34.977   +05 32 11.06  .20197 1.1979 156.4 20.6  57d  84
2025 05 12 02  15 19 34.897   +05 31 21.50  .20171 1.1977 156.4 20.6  57d  84
2025 05 12 03  15 19 34.817   +05 30 31.72  .20145 1.1974 156.4 20.6  57d  84
2025 05 12 04  15 19 34.737   +05 29 41.74  .20119 1.1972 156.4 20.6  58d  84
2025 05 12 05  15 19 34.656   +05 28 51.55  .20093 1.1970 156.4 20.6  58d  84
2025 05 12 06  15 19 34.574   +05 28 01.15  .20067 1.1967 156.4 20.6  58d  84
2025 05 12 07  15 19 34.493   +05 27 10.54  .20041 1.1965 156.4 20.6  58d  84
2025 05 12 08  15 19 34.411   +05 26 19.71  .20015 1.1963 156.4 20.6  58d  84
2025 05 12 09  15 19 34.328   +05 25 28.67  .19989 1.1961 156.4 20.6  58d  84
2025 05 12 10  15 19 34.245   +05 24 37.42  .19964 1.1958 156.4 20.6  58d  84
2025 05 12 11  15 19 34.162   +05 23 45.95  .19938 1.1956 156.4 20.6  58d  84
2025 05 12 12  15 19 34.079   +05 22 54.27  .19912 1.1954 156.4 20.6  58d  84
2025 05 12 13  15 19 33.995   +05 22 02.37  .19886 1.1951 156.4 20.6  58d  84
2025 05 12 14  15 19 33.911   +05 21 10.25  .19860 1.1949 156.4 20.6  58d  84
2025 05 12 15  15 19 33.826   +05 20 17.92  .19834 1.1947 156.4 20.6  58d  84
2025 05 12 16  15 19 33.741   +05 19 25.37  .19809 1.1945 156.5 20.6  58d  84
2025 05 12 17  15 19 33.656   +05 18 32.60  .19783 1.1942 156.5 20.6  58d  84
2025 05 12 18  15 19 33.570   +05 17 39.62  .19757 1.1940 156.5 20.6  58d  84
2025 05 12 19  15 19 33.484   +05 16 46.41  .19731 1.1938 156.5 20.6  58d  84
2025 05 12 20  15 19 33.398   +05 15 52.98  .19706 1.1936 156.5 20.5  58d  84
2025 05 12 21  15 19 33.312   +05 14 59.33  .19680 1.1933 156.5 20.5  58d  84
2025 05 12 22  15 19 33.225   +05 14 05.46  .19654 1.1931 156.5 20.5  58d  85
2025 05 12 23  15 19 33.138   +05 13 11.37  .19629 1.1929 156.5 20.5  58d  85
2025 05 13 00  15 19 33.051   +05 12 17.05  .19603 1.1926 156.5 20.5  58d  85
2025 05 13 01  15 19 32.963   +05 11 22.51  .19577 1.1924 156.5 20.5  58d  85
2025 05 13 02  15 19 32.875   +05 10 27.75  .19552 1.1922 156.5 20.5  58d  85
2025 05 13 03  15 19 32.787   +05 09 32.76  .19526 1.1920 156.5 20.5  58d  85
2025 05 13 04  15 19 32.699   +05 08 37.54  .19500 1.1917 156.5 20.5  58d  85
2025 05 13 05  15 19 32.610   +05 07 42.10  .19475 1.1915 156.5 20.5  58d  85
2025 05 13 06  15 19 32.522   +05 06 46.43  .19449 1.1913 156.5 20.5  58d  85
2025 05 13 07  15 19 32.433   +05 05 50.53  .19424 1.1911 156.5 20.5  58d  85
2025 05 13 08  15 19 32.343   +05 04 54.40  .19398 1.1908 156.5 20.5  58d  85
2025 05 13 09  15 19 32.254   +05 03 58.04  .19373 1.1906 156.5 20.5  58d  85
2025 05 13 10  15 19 32.164   +05 03 01.45  .19347 1.1904 156.5 20.5  58d  85
2025 05 13 11  15 19 32.075   +05 02 04.63  .19322 1.1902 156.5 20.5  58d  85
2025 05 13 12  15 19 31.984   +05 01 07.58  .19296 1.1899 156.6 20.5  58d  85
2025 05 13 13  15 19 31.894   +05 00 10.30  .19271 1.1897 156.6 20.5  58d  85
2025 05 13 14  15 19 31.804   +04 59 12.78  .19245 1.1895 156.6 20.5  58d  85
2025 05 13 15  15 19 31.713   +04 58 15.03  .19220 1.1893 156.6 20.5  58d  85
2025 05 13 16  15 19 31.623   +04 57 17.04  .19194 1.1890 156.6 20.5  58d  85
2025 05 13 17  15 19 31.532   +04 56 18.82  .19169 1.1888 156.6 20.5  58d  85
2025 05 13 18  15 19 31.441   +04 55 20.36  .19143 1.1886 156.6 20.5  58d  85
2025 05 13 19  15 19 31.350   +04 54 21.67  .19118 1.1884 156.6 20.5  58d  85
2025 05 13 20  15 19 31.258   +04 53 22.73  .19093 1.1881 156.6 20.5  58d  85
2025 05 13 21  15 19 31.167   +04 52 23.56  .19067 1.1879 156.6 20.5  58d  85
2025 05 13 22  15 19 31.076   +04 51 24.15  .19042 1.1877 156.6 20.5  58d  85
2025 05 13 23  15 19 30.984   +04 50 24.50  .19016 1.1875 156.6 20.5  58d  85
2025 05 14 00  15 19 30.892   +04 49 24.61  .18991 1.1872 156.6 20.5  58d  85